Regional Weather Roundup
Issued by NWS

Home | Current Version | Previous Version | Graphics & Text | Print | Product List | Glossary On
Versions: 1 2 3 4 5 6 7 8 9 10 11 12 13 14 15 16 17 18 19 20 21 22 23 24 25 26 27
000
ASUS45 KBOI 270310
RWRID

IDAHO REGIONAL WEATHER ROUNDUP
NATIONAL WEATHER SERVICE BOISE ID
900 PM MDT MON JUN 26 2017

NOTE: "FAIR" INDICATES FEW OR NO CLOUDS BELOW 12000 FEET
WITH NO SIGNIFICANT WEATHER AND/OR OBSTRUCTIONS TO VISIBILITY

IDZ012-014-270400-
SOUTHWEST IDAHO


CITY           SKY/WX    TMP DP  RH WIND       PRES   REMARKS
BOISE          MOCLDY    80  52  37 NW5       29.81R
CALDWELL       MOCLDY    78  54  43 E7        29.78S
MOUNTAIN HOME  PTCLDY    82  51  34 W3        29.83R
$$

IDZ016-017-270400-
SOUTHCENTRAL IDAHO


CITY           SKY/WX    TMP DP  RH WIND       PRES   REMARKS
BURLEY         CLOUDY    71  54  54 N5        29.88S
JEROME         CLOUDY    79  45  29 E9        29.87F
TWIN FALLS     CLOUDY    73  54  51 SW3       29.91S
$$

IDZ019>023-270400-
SOUTHEAST IDAHO


CITY           SKY/WX    TMP DP  RH WIND       PRES   REMARKS
IDAHO FALLS    CLOUDY    78  43  28 S12       29.94R
POCATELLO      CLOUDY    77  42  28 S8        29.91F
REXBURG        CLOUDY    77  45  32 SW13      29.95R THUNDER
$$

IDZ006-010-011-018-031-032-270400-
CENTRAL IDAHO MOUNTAINS


CITY           SKY/WX    TMP DP  RH WIND       PRES   REMARKS
MCCALL         CLOUDY    67  48  50 VRB7      29.97F
HAILEY         MOCLDY    72  46  40 W7        29.98F
STANLEY          N/A     61  46  57 W8G17     30.12F
SALMON         CLOUDY    81  39  22 SW18G24   29.83F
CHALLIS        LGT RAIN  72  45  37 W23G37    30.01R
$$

IDZ002-004-006-007-026-270400-
NORTHERN IDAHO


CITY           SKY/WX    TMP DP  RH WIND       PRES   REMARKS
LEWISTON       CLOUDY    78  54  43 W9        29.81R
LOWELL           N/A     72  62  71 CALM      29.80R
COEUR D`ALENE  CLOUDY    76  58  53 E6        29.76R
MULLAN PASS    CLOUDY    65  45  48 VRB3      29.98F
$$




USA.gov is the U.S. government's official web portal to all federal, state and local government web resources and services.